Regional Weather Roundup
Issued by NWS Newport/Morehead, NC

Current Version | Previous Version | Text Only | Print | Product List | Glossary On
Versions: 1 2 3 4 5 6 7 8 9 10 11 12 13 14 15 16 17 18 19 20 21 22 23 24 25 26 27 28 29 30 31 32 33 34 35 36 37 38 39 40 41 42 43 44 45 46 47 48 49 50
000
ASUS42 KMHX 300822
RWRMHX
WEATHER ROUNDUP FOR EASTERN NORTH CAROLINA
NATIONAL WEATHER SERVICE NEWPORT/MOREHEAD CITY NC
400 AM EDT SAT AUG 30 2014

NOTE: "FAIR" INDICATES FEW OR NO CLOUDS BELOW 12,000 FEET
WITH NO SIGNIFICANT WEATHER AND/OR OBSTRUCTIONS TO VISIBILITY

NCZ015>017-031-032-045>047-102-103-300900-
NORTH COAST

CITY           SKY/WX    TMP DP  RH WIND       PRES   REMARKS
EDENTON        CLOUDY    72  69  88 NE5       30.18S
ELIZABETH CITY CLOUDY    74  67  78 E7        30.19S
KITTY HAWK     SUNNY     75  68  78 E8        30.18S
MANTEO         CLOUDY    74  69  81 E8        30.18S

$$

NCZ045>047-081-094-103-104-300900-
CENTRAL COAST

CITY           SKY/WX    TMP DP  RH WIND       PRES   REMARKS
FRISCO         MOCLDY    75  75 100 E3        30.17S
SWANQUARTER      N/A     73 N/A N/A NE7       30.12F

$$

NCZ095-097-098-100-101-300900-
SOUTHERN COAST

CITY           SKY/WX    TMP DP  RH WIND       PRES   REMARKS
BEAUFORT       CLEAR     75  73  93 CALM      30.16S
CEDAR ISLAND     N/A     75 N/A N/A SE1       30.21S
JACKSONVILLE   CLEAR     74  73  97 E3        30.16S
NEWPORT        NOT AVBL
PINEY ISLAND   SUNNY     77  76  96 CALM      30.16S
WILMINGTON     PTCLDY    72  70  93 NE5       30.15F


$$

NCZ011>013-027>030-043-044-078>080-089-090>093-098-300900-
COASTAL PLAIN

CITY           SKY/WX    TMP DP  RH WIND       PRES   REMARKS
AHOSKIE        MOCLDY    70  65  85 CALM      30.19S
CLINTON        PTCLDY    73  73 100 CALM      30.17F FOG
ELIZABETHTOWN  CLEAR     71  71 100 CALM      30.16S
GOLDSBORO      CLEAR     70  70  98 E3        30.16R
GREENVILLE     MOCLDY    70  68  94 CALM      30.19S
HAVELOCK       CLEAR     74  72  93 CALM      30.18S
KENANSVILLE    MOCLDY    72  70  94 CALM      30.18S FOG
KINSTON        CLEAR     69  68  96 CALM      30.19R
NEW BERN       CLEAR     72  68  87 CALM      30.18S
RICHLANDS      MOCLDY    72  68  88 CALM      30.17S
ROANOKE RAPIDS NOT AVBL
ROCKY MOUNT    MOCLDY    69  67  93 CALM      30.19R
WASHINGTON     CLEAR     68  66  94 CALM      30.19R
WHITEVILLE     CLEAR     71  70  96 CALM      30.15S

$$

AMZ130-135-150-152-154-156-158-170-250-252-270-ANZ085-086-088-633-658-670-300900-
MARINE OBSERVATIONS

STATION/POSITION TIME  TEMP    WIND        PRES    WAVE   SWELL
                       AIR SEA DIR/SP/G            HT/PER HT/PER
                 (UTC) (F)     (DEG/KT/KT) (MB)    (FT/S) (FT/S)
CHESAPEAKE LIGHT 0800   75     120/ 14/ 15 1022.9
BUOY 44014       0800   76 76   80/  8/ 10 1022.4    3/ 8   2/ 8
DUCK             0800   75 78   80/ 14/ 15 1021.6
2E DUCK          0800                        N/A     3/ 8
OREGON INLET     0800   75 79   60/  9/ 12 1021.7
BUOY 44095       0800      76                N/A     4/ 7
20E OREGON INLET NOT AVBL
HATTERAS CG      0800   79 82  100/  2/  4 1021.8
DIAMOND BUOY     0800   79      20/ 10/ 12 1021.2    4/ 8   3/ 8
CAPE LOOKOUT     0800   80      70/  3/  3 1021.1
BEAUFORT LAB     0800   77 82   40/  2/  3 1020.7
30 SE NEW RIVER  0800   82 82  210/  8/  8 1021.5    3/ 8   3/ 8
5 SE WRIGHTSVILL 0800   78 81  170/  6/  8   N/A
BUOY 41002       0705   80 82  120/  4/  6 1021.5    3/ 8   3/ 8
BUOY 41004       0800   82 83   CALM  /  4 1019.8    3/ 8

$$


USA.gov is the U.S. government's official web portal to all federal, state and local government web resources and services.